Weather in Vzgorye

Russia / Samara Oblast     53°12′07″N   48°21′21″E
temp.,
°C
wind,
m/s
gust,
m/s
humid.,
%
clouds,
%
prec.,
mm/h
press.,
hPa
HPBL,
m
28 february, sun
sun2801:00−14nnw7138899 0.1 1004467
04:00−16nnw7148998 0.2 1006446
07:00−18nnw5139179 0.0 1008342
10:00−16nnw6129047 0.0 1009372
13:00−13nnw710866 0.0 1011489
16:00−12nnw610854 0.0 1012558
19:00−16nw410903 0.0 1014258
22:00−17nnw4109326 0.0 1016255
1 march, mon
mon101:00−19nw349573 0.0 101872
04:00−20nw349638 0.0 102060
07:00−20nw33964 0.0 102149
10:00−17nnw37913 0.0 1023285
13:00−13nw358935 0.0 1023398
16:00−10nw358726 0.0 1023475
19:00−14sw119690 0.0 102220
22:00−15wsw239474 0.0 102223
2 march, tue
tue201:00−15wsw369664 0.0 101996
04:00−13sw4109681 0.0 1016225
07:00−7sw61395100 0.3 1011507
10:00−4sw81396100 1.3 1008724
13:00−1sw71296100 1.1 1004723
16:000wsw71297100 2.6 1002777
19:000wnw5998100 0.4 1001487
22:00−5wnw479389 0.4 1002127
3 march, wed
wed301:00−6wnw4109340 0.0 1002234
04:00−5wnw4119261 0.0 1002311
07:00−6nw51192100 0.0 1003322
10:00−4nw6129093 0.0 1004593
13:00−1nw698786 0.0 1005756
16:00−1nw698893 0.2 1006732
19:00−4nw61291100 0.1 1007454
22:00−5nnw4109496 0.2 1010357
4 march, thu
thu401:00−8nw479236 0.1 1012155
04:00−11nw479339 0.1 1014141
07:00−12wnw47943 0.0 1015113
10:00−9w59925 0.0 1016303
13:00−5wsw6109089 0.0 1014595
16:00−2wsw7128685 0.0 1012812
19:00−3wsw81587100 0.0 1011744
22:00−3wsw81686100 0.0 1010641